| time (UTC) | temp F | wind direction | speed knots | gust knots | rain 1hr in | rain 24hr in | rain mn in | humidity % | barometer mb |
| 20260904090701 | 68 | 260 | 10.4 | 17.4 | 0.05 | 0.18 | 0.17 | 95 | 1005.3 |
| 20260904090201 | 68 | 251 | 8.7 | 17.4 | 0.05 | 0.18 | 0.17 | 95 | 1005.3 |
| 20260904085701 | 68 | 247 | 10.4 | 22.6 | 0.04 | 0.17 | 0.17 | 95 | 1005.2 |
| 20260904085200 | 68 | 249 | 8.7 | 22.6 | 0.04 | 0.17 | 0.17 | 95 | 1005.2 |
| 20260904084701 | 68 | 233 | 8.7 | 19.1 | 0.03 | 0.17 | 0.16 | 95 | 1005.1 |
| 20260904083701 | 68 | 238 | 10.4 | 20.0 | 0.02 | 0.16 | 0.15 | 94 | 1004.9 |
| 20260904083201 | 68 | 236 | 10.4 | 24.3 | 0.02 | 0.15 | 0.14 | 94 | 1005.0 |
| 20260904082701 | 68 | 244 | 11.3 | 18.2 | 0.01 | 0.14 | 0.13 | 94 | 1005.0 |
| 20260904082201 | 68 | 248 | 7.8 | 17.4 | 0.01 | 0.14 | 0.13 | 94 | 1005.0 |
| 20260904081701 | 68 | 240 | 10.4 | 22.6 | 0.00 | 0.13 | 0.13 | 94 | 1005.0 |
| 20260904081201 | 68 | 247 | 8.7 | 14.8 | 0.00 | 0.13 | 0.13 | 94 | 1004.8 |
| 20260904080701 | 68 | 231 | 6.1 | 17.4 | 0.01 | 0.13 | 0.13 | 94 | 1004.8 |
| 20260904075701 | 68 | 240 | 8.7 | 20.0 | 0.01 | 0.13 | 0.13 | 94 | 1005.2 |
| 20260904075201 | 68 | 234 | 7.8 | 17.4 | 0.01 | 0.13 | 0.13 | 94 | 1005.4 |
| 20260904074701 | 68 | 233 | 11.3 | 20.0 | 0.01 | 0.13 | 0.13 | 95 | 1005.4 |
| 20260904074201 | 68 | 240 | 7.0 | 13.9 | 0.01 | 0.13 | 0.13 | 95 | 1005.4 |
| 20260904073701 | 68 | 229 | 7.8 | 13.9 | 0.01 | 0.14 | 0.13 | 95 | 1005.5 |
| 20260904073201 | 67 | 241 | 7.8 | 17.4 | 0.01 | 0.14 | 0.13 | 95 | 1005.6 |
| 20260904072701 | 67 | 246 | 6.1 | 13.9 | 0.01 | 0.14 | 0.13 | 95 | 1005.6 |
| 20260904072201 | 67 | 226 | 7.8 | 15.6 | 0.01 | 0.14 | 0.13 | 96 | 1005.6 |
| 20260904071701 | 67 | 216 | 8.7 | 15.6 | 0.01 | 0.14 | 0.13 | 95 | 1005.7 |
| 20260904071202 | 67 | 216 | 6.1 | 14.8 | 0.01 | 0.15 | 0.13 | 96 | 1006.0 |
| 20260904070701 | 67 | 236 | 5.2 | 13.9 | 0.00 | 0.14 | 0.12 | 96 | 1006.0 |
| 20260904065702 | 67 | 232 | 5.2 | 11.3 | 0.00 | 0.14 | 0.12 | 96 | 1005.9 |
| 20260904063701 | 67 | 227 | 6.1 | 13.0 | 0.00 | 0.14 | 0.12 | 97 | 1006.1 |
| 20260904063201 | 67 | 217 | 4.3 | 7.8 | 0.00 | 0.14 | 0.12 | 97 | 1006.4 |
| 20260904062702 | 67 | 249 | 5.2 | 12.2 | 0.00 | 0.14 | 0.12 | 97 | 1006.4 |
| 20260904062201 | 67 | 241 | 4.3 | 11.3 | 0.00 | 0.14 | 0.12 | 97 | 1006.4 |
| 20260904061701 | 67 | 230 | 4.3 | 10.4 | 0.00 | 0.14 | 0.12 | 97 | 1006.5 |
| 20260904061202 | 67 | 234 | 3.5 | 13.0 | 0.00 | 0.14 | 0.12 | 97 | 1006.5 |
| 20260904055702 | 67 | 248 | 4.3 | 12.2 | 0.00 | 0.14 | 0.12 | 97 | 1006.9 |
| 20260904055201 | 67 | 228 | 3.5 | 12.2 | 0.00 | 0.14 | 0.12 | 97 | 1007.0 |
| 20260904054701 | 67 | 227 | 2.6 | 13.9 | 0.00 | 0.14 | 0.12 | 97 | 1007.1 |
| 20260904053701 | 67 | 222 | 4.3 | 10.4 | 0.01 | 0.14 | 0.12 | 97 | 1007.2 |
| 20260904053201 | 67 | 205 | 2.6 | 7.0 | 0.01 | 0.14 | 0.12 | 97 | 1007.3 |
| 20260904052701 | 67 | 212 | 5.2 | 10.4 | 0.01 | 0.14 | 0.12 | 97 | 1007.3 |
| 20260904052202 | 67 | 234 | 5.2 | 10.4 | 0.01 | 0.14 | 0.12 | 97 | 1007.3 |
| 20260904051702 | 67 | 239 | 2.6 | 7.0 | 0.02 | 0.14 | 0.12 | 97 | 1007.3 |
| 20260904051202 | 67 | 206 | 3.5 | 7.8 | 0.02 | 0.14 | 0.12 | 97 | 1007.3 |
| 20260904050701 | 67 | 215 | 4.3 | 10.4 | 0.02 | 0.14 | 0.12 | 97 | 1007.3 |
| 20260904050202 | 67 | 235 | 4.3 | 7.8 | 0.02 | 0.14 | 0.12 | 97 | 1007.5 |
| 20260904045701 | 67 | 239 | 4.3 | 7.8 | 0.02 | 0.14 | 0.12 | 97 | 1007.5 |
| 20260904045201 | 67 | 231 | 4.3 | 11.3 | 0.02 | 0.14 | 0.12 | 97 | 1007.6 |
| 20260904044701 | 67 | 225 | 7.0 | 14.8 | 0.02 | 0.14 | 0.12 | 97 | 1007.8 |
| 20260904044201 | 67 | 217 | 3.5 | 10.4 | 0.02 | 0.14 | 0.12 | 97 | 1007.7 |
| 20260904043701 | 67 | 240 | 4.3 | 10.4 | 0.02 | 0.13 | 0.11 | 97 | 1007.7 |
| 20260904043201 | 67 | 223 | 4.3 | 11.3 | 0.06 | 0.13 | 0.11 | 97 | 1007.7 |
| 20260904042702 | 67 | 221 | 6.1 | 17.4 | 0.06 | 0.13 | 0.11 | 97 | 1007.9 |
| 20260904042201 | 67 | 231 | 5.2 | 10.4 | 0.06 | 0.13 | 0.11 | 97 | 1008.0 |
| 20260904041202 | 67 | 229 | 4.3 | 10.4 | 0.05 | 0.13 | 0.10 | 97 | 1008.1 |
| 20260904040702 | 67 | 255 | 5.2 | 7.8 | 0.05 | 0.13 | 0.10 | 97 | 1008.1 |
| 20260904035702 | 67 | 222 | 4.3 | 7.8 | 0.05 | 0.13 | 0.10 | 96 | 1008.2 |
| 20260904035201 | 67 | 233 | 3.5 | 10.4 | 0.05 | 0.13 | 0.10 | 96 | 1008.1 |
| 20260904034701 | 67 | 190 | 2.6 | 7.0 | 0.05 | 0.13 | 0.10 | 96 | 1008.1 |
| 20260904034202 | 67 | 213 | 5.2 | 7.8 | 0.04 | 0.12 | 0.09 | 96 | 1008.3 |
| 20260904033702 | 67 | 221 | 3.5 | 7.0 | 0.03 | 0.11 | 0.09 | 96 | 1008.4 |
| 20260904033202 | 67 | 231 | 3.5 | 7.8 | 0.00 | 0.08 | 0.06 | 96 | 1008.4 |
| 20260904032702 | 67 | 224 | 3.5 | 8.7 | 0.00 | 0.08 | 0.06 | 96 | 1008.6 |
| 20260904032202 | 67 | 216 | 1.7 | 8.7 | 0.00 | 0.08 | 0.06 | 96 | 1008.7 |
| 20260904031703 | 67 | 224 | 4.3 | 7.0 | 0.00 | 0.08 | 0.06 | 96 | 1008.8 |
| 20260904031202 | 67 | 236 | 4.3 | 11.3 | 0.00 | 0.08 | 0.06 | 96 | 1009.0 |
| 20260904030202 | 67 | 207 | 3.5 | 13.9 | 0.00 | 0.08 | 0.06 | 96 | 1008.9 |
| 20260904025702 | 67 | 212 | 2.6 | 8.7 | 0.00 | 0.08 | 0.06 | 96 | 1008.9 |
| 20260904025202 | 67 | 216 | 1.7 | 7.8 | 0.00 | 0.08 | 0.06 | 96 | 1008.9 |
| 20260904024702 | 67 | 221 | 2.6 | 7.8 | 0.00 | 0.08 | 0.06 | 96 | 1009.1 |
| 20260904023703 | 67 | 204 | 5.2 | 10.4 | 0.00 | 0.08 | 0.06 | 96 | 1009.3 |
| 20260904023202 | 67 | 236 | 3.5 | 10.4 | 0.00 | 0.08 | 0.06 | 96 | 1009.3 |
| 20260904022703 | 67 | 207 | 5.2 | 11.3 | 0.00 | 0.08 | 0.06 | 96 | 1009.3 |
| 20260904022202 | 67 | 225 | 4.3 | 7.8 | 0.00 | 0.08 | 0.06 | 96 | 1009.5 |
| 20260904021702 | 67 | 229 | 7.0 | 15.6 | 0.01 | 0.08 | 0.06 | 96 | 1009.5 |
| 20260904021202 | 67 | 241 | 6.1 | 15.6 | 0.02 | 0.08 | 0.06 | 96 | 1009.7 |
| 20260904020702 | 67 | 229 | 5.2 | 10.4 | 0.02 | 0.08 | 0.06 | 96 | 1009.8 |
| 20260904020202 | 67 | 212 | 3.5 | 11.3 | 0.02 | 0.08 | 0.06 | 96 | 1009.6 |
| 20260904015702 | 67 | 236 | 2.6 | 7.0 | 0.02 | 0.08 | 0.06 | 96 | 1009.7 |
| 20260904015202 | 67 | 219 | 2.6 | 8.7 | 0.02 | 0.08 | 0.06 | 96 | 1009.7 |
| 20260904014703 | 67 | 247 | 5.2 | 11.3 | 0.02 | 0.08 | 0.06 | 96 | 1009.8 |
| 20260904014202 | 67 | 201 | 2.6 | 7.8 | 0.02 | 0.08 | 0.06 | 96 | 1009.9 |
| 20260904013703 | 67 | 231 | 3.5 | 7.0 | 0.02 | 0.08 | 0.06 | 96 | 1009.9 |
| 20260904013203 | 67 | 215 | 2.6 | 7.8 | 0.02 | 0.08 | 0.06 | 96 | 1010.0 |
| 20260904012703 | 67 | 231 | 4.3 | 7.8 | 0.02 | 0.08 | 0.06 | 96 | 1010.1 |
| 20260904012203 | 67 | 213 | 2.6 | 7.0 | 0.06 | 0.08 | 0.06 | 96 | 1010.2 |
| 20260904011202 | 67 | 237 | 1.7 | 6.1 | 0.04 | 0.06 | 0.04 | 95 | 1010.1 |
| 20260904010703 | 67 | 204 | 1.7 | 6.1 | 0.04 | 0.06 | 0.04 | 95 | 1010.2 |
| 20260904010203 | 67 | 210 | 2.6 | 8.7 | 0.04 | 0.06 | 0.04 | 95 | 1010.3 |
| 20260904005702 | 67 | 189 | 1.7 | 5.2 | 0.04 | 0.06 | 0.04 | 95 | 1010.4 |
| 20260904005203 | 67 | 210 | 2.6 | 5.2 | 0.04 | 0.06 | 0.04 | 95 | 1010.5 |
| 20260904004703 | 67 | 209 | 0.9 | 6.1 | 0.04 | 0.06 | 0.04 | 95 | 1010.5 |
| 20260904004203 | 67 | 192 | 1.7 | 8.7 | 0.04 | 0.06 | 0.04 | 95 | 1010.6 |
| 20260904003703 | 67 | 187 | 4.3 | 10.4 | 0.03 | 0.06 | 0.03 | 95 | 1010.7 |
| 20260904002703 | 67 | 212 | 1.7 | 7.0 | 0.03 | 0.06 | 0.03 | 95 | 1010.8 |
| 20260904002203 | 67 | 197 | 4.3 | 11.3 | 0.00 | 0.02 | 0.00 | 94 | 1010.8 |
| 20260904001703 | 67 | 183 | 4.3 | 8.7 | 0.00 | 0.02 | 0.00 | 94 | 1010.9 |
| 20260904000703 | 67 | 206 | 1.7 | 10.4 | 0.00 | 0.02 | 0.00 | 94 | 1011.2 |
| 20260904000204 | 67 | 195 | 1.7 | 6.1 | 0.00 | 0.02 | 0.00 | 94 | 1011.1 |
| 20260903235703 | 67 | 194 | 2.6 | 6.1 | 0.00 | 0.02 | 0.00 | 94 | 1011.1 |
| 20260903235203 | 67 | 200 | 2.6 | 7.8 | 0.00 | 0.02 | 0.00 | 94 | 1011.2 |
| 20260903234703 | 67 | 177 | 1.7 | 7.0 | 0.00 | 0.02 | 0.00 | 94 | 1011.2 |
| 20260903234203 | 67 | 173 | 1.7 | 5.2 | 0.00 | 0.02 | 0.00 | 94 | 1011.3 |
| 20260903233703 | 66 | 197 | 4.3 | 7.8 | 0.00 | 0.02 | 0.00 | 94 | 1011.4 |
| 20260903233203 | 66 | 183 | 2.6 | 6.1 | 0.00 | 0.02 | 0.00 | 94 | 1011.7 |
| 20260903232703 | 66 | 185 | 3.5 | 8.7 | 0.00 | 0.02 | 0.00 | 94 | 1011.7 |
| 20260903232203 | 66 | 206 | 2.6 | 5.2 | 0.00 | 0.02 | 0.00 | 94 | 1011.9 |
| 20260903231703 | 66 | 201 | 1.7 | 7.0 | 0.00 | 0.02 | 0.00 | 94 | 1012.1 |
| 20260903231203 | 66 | 190 | 1.7 | 6.1 | 0.00 | 0.02 | 0.00 | 94 | 1012.1 |
| 20260903230704 | 66 | 179 | 1.7 | 4.3 | 0.00 | 0.02 | 0.00 | 94 | 1012.2 |
| 20260903230203 | 66 | 184 | 0.9 | 2.6 | 0.00 | 0.02 | 0.00 | 93 | 1012.3 |
| 20260903225204 | 66 | 198 | 1.7 | 7.0 | 0.00 | 0.02 | 0.00 | 93 | 1012.2 |
| 20260903224204 | 66 | 212 | 1.7 | 4.3 | 0.00 | 0.02 | 0.00 | 93 | 1012.5 |
| 20260903223203 | 66 | 174 | 1.7 | 5.2 | 0.00 | 0.02 | 0.00 | 93 | 1012.4 |
| 20260903222703 | 66 | 224 | 0.9 | 6.1 | 0.00 | 0.02 | 0.00 | 93 | 1012.7 |
| 20260903222203 | 66 | 219 | 1.7 | 7.0 | 0.00 | 0.02 | 0.00 | 93 | 1012.6 |
| 20260903221703 | 66 | 225 | 1.7 | 4.3 | 0.00 | 0.02 | 0.00 | 93 | 1012.8 |
| 20260903221203 | 66 | 225 | 1.7 | 5.2 | 0.00 | 0.02 | 0.00 | 93 | 1012.8 |
| 20260903220703 | 66 | 237 | 2.6 | 7.0 | 0.00 | 0.02 | 0.00 | 93 | 1012.8 |
| 20260903220203 | 66 | 205 | 1.7 | 2.6 | 0.00 | 0.02 | 0.00 | 93 | 1012.9 |
| 20260903215704 | 66 | 235 | 2.6 | 5.2 | 0.00 | 0.02 | 0.02 | 93 | 1012.9 |
| 20260903215204 | 66 | 224 | 2.6 | 7.8 | 0.00 | 0.02 | 0.02 | 93 | 1012.9 |
| 20260903214704 | 66 | 235 | 1.7 | 6.1 | 0.00 | 0.02 | 0.02 | 93 | 1012.9 |
| 20260903214204 | 66 | 220 | 1.7 | 5.2 | 0.00 | 0.02 | 0.02 | 93 | 1013.1 |
| 20260903213203 | 66 | 203 | 1.7 | 6.1 | 0.00 | 0.02 | 0.02 | 92 | 1013.3 |
| 20260903212704 | 66 | 212 | 2.6 | 7.8 | 0.00 | 0.02 | 0.02 | 92 | 1013.4 |
| 20260903212203 | 66 | 216 | 1.7 | 6.1 | 0.00 | 0.02 | 0.02 | 92 | 1013.3 |
| 20260903211703 | 66 | 203 | 1.7 | 6.1 | 0.00 | 0.02 | 0.02 | 92 | 1013.5 |
| 20260903211204 | 66 | 216 | 0.9 | 5.2 | 0.00 | 0.02 | 0.02 | 92 | 1013.4 |
| 20260903210704 | 66 | 225 | 2.6 | 7.8 | 0.00 | 0.02 | 0.02 | 92 | 1013.6 |
| 20260903205704 | 65 | 214 | 0.9 | 2.6 | 0.00 | 0.02 | 0.02 | 91 | 1013.5 |
| 20260903204704 | 66 | 192 | 0.9 | 5.2 | 0.00 | 0.02 | 0.02 | 91 | 1013.4 |
| 20260903204203 | 66 | 185 | 0.0 | 2.6 | 0.00 | 0.02 | 0.02 | 91 | 1013.6 |
| 20260903203703 | 66 | 228 | 0.9 | 4.3 | 0.00 | 0.02 | 0.02 | 91 | 1013.7 |
| 20260903203203 | 66 | 243 | 0.0 | 2.6 | 0.00 | 0.02 | 0.02 | 91 | 1013.7 |
| 20260903202703 | 66 | 228 | 1.7 | 4.3 | 0.00 | 0.02 | 0.02 | 91 | 1013.7 |
| 20260903202203 | 66 | 234 | 0.9 | 4.3 | 0.00 | 0.02 | 0.02 | 91 | 1013.6 |
| 20260903201703 | 65 | 237 | 2.6 | 7.8 | 0.00 | 0.02 | 0.02 | 91 | 1013.7 |
| 20260903201204 | 65 | 236 | 3.5 | 6.1 | 0.00 | 0.02 | 0.02 | 90 | 1013.8 |
| 20260903200704 | 65 | 211 | 1.7 | 4.3 | 0.00 | 0.02 | 0.02 | 90 | 1013.6 |
| 20260903200203 | 65 | 211 | 1.7 | 6.1 | 0.00 | 0.02 | 0.02 | 89 | 1013.7 |
| 20260903195704 | 66 | 217 | 0.9 | 4.3 | 0.00 | 0.02 | 0.02 | 89 | 1013.8 |
| 20260903195203 | 66 | 217 | 0.9 | 1.7 | 0.00 | 0.02 | 0.02 | 89 | 1013.9 |
| 20260903194703 | 66 | 218 | 0.0 | 1.7 | 0.00 | 0.02 | 0.02 | 88 | 1014.0 |
| 20260903194204 | 66 | 201 | 0.0 | 1.7 | 0.00 | 0.02 | 0.02 | 88 | 1014.0 |
| 20260903193204 | 66 | 210 | 0.0 | 1.7 | 0.00 | 0.02 | 0.02 | 87 | 1014.1 |
| 20260903192704 | 66 | 234 | 1.7 | 2.6 | 0.00 | 0.02 | 0.02 | 87 | 1014.2 |
| 20260903192203 | 66 | 231 | 0.9 | 2.6 | 0.00 | 0.02 | 0.02 | 86 | 1014.2 |
| 20260903191703 | 67 | 229 | 1.7 | 2.6 | 0.00 | 0.02 | 0.02 | 86 | 1014.1 |
| 20260903191203 | 67 | 224 | 0.9 | 2.6 | 0.00 | 0.02 | 0.02 | 86 | 1013.8 |
| 20260903190704 | 67 | 230 | 1.7 | 6.1 | 0.00 | 0.02 | 0.02 | 85 | 1013.9 |
| 20260903190204 | 67 | 239 | 1.7 | 2.6 | 0.00 | 0.02 | 0.02 | 85 | 1013.9 |
| 20260903185204 | 67 | 245 | 1.7 | 2.6 | 0.00 | 0.02 | 0.02 | 85 | 1013.8 |
| 20260903184704 | 67 | 205 | 1.7 | 5.2 | 0.00 | 0.02 | 0.02 | 84 | 1013.8 |
| 20260903184204 | 68 | 207 | 2.6 | 4.3 | 0.00 | 0.02 | 0.02 | 84 | 1014.0 |
| 20260903183203 | 68 | 244 | 2.6 | 5.2 | 0.00 | 0.02 | 0.02 | 83 | 1014.1 |
| 20260903182704 | 68 | 255 | 2.6 | 7.0 | 0.00 | 0.02 | 0.02 | 83 | 1014.0 |
| 20260903182204 | 68 | 240 | 2.6 | 5.2 | 0.00 | 0.02 | 0.02 | 83 | 1014.2 |
| 20260903181704 | 68 | 238 | 3.5 | 7.0 | 0.00 | 0.02 | 0.02 | 82 | 1013.9 |
| 20260903181204 | 68 | 244 | 4.3 | 7.0 | 0.00 | 0.02 | 0.02 | 81 | 1013.7 |
| 20260903180704 | 68 | 238 | 2.6 | 6.1 | 0.00 | 0.02 | 0.02 | 81 | 1013.7 |
| 20260903175704 | 69 | 231 | 3.5 | 7.8 | 0.00 | 0.02 | 0.02 | 80 | 1013.9 |
| 20260903175204 | 69 | 248 | 4.3 | 7.8 | 0.00 | 0.02 | 0.02 | 80 | 1014.0 |
| 20260903174704 | 69 | 243 | 4.3 | 10.4 | 0.00 | 0.02 | 0.02 | 79 | 1014.0 |
| 20260903174206 | 69 | 256 | 3.5 | 10.4 | 0.00 | 0.02 | 0.02 | 79 | 1014.2 |
| 20260903173704 | 69 | 243 | 6.1 | 10.4 | 0.00 | 0.02 | 0.02 | 79 | 1014.0 |
| 20260903172703 | 69 | 282 | 6.1 | 10.4 | 0.00 | 0.02 | 0.02 | 78 | 1013.9 |
| 20260903172202 | 69 | 267 | 5.2 | 10.4 | 0.00 | 0.02 | 0.02 | 78 | 1014.0 |
| 20260903171702 | 69 | 258 | 5.2 | 10.4 | 0.00 | 0.02 | 0.02 | 78 | 1013.9 |
| 20260903171202 | 69 | 278 | 5.2 | 11.3 | 0.00 | 0.02 | 0.02 | 78 | 1014.0 |
| 20260903170703 | 70 | 266 | 5.2 | 12.2 | 0.00 | 0.02 | 0.02 | 77 | 1013.9 |
| 20260903170203 | 70 | 272 | 7.8 | 12.2 | 0.00 | 0.02 | 0.02 | 77 | 1013.8 |
| 20260903165702 | 70 | 273 | 8.7 | 14.8 | 0.00 | 0.02 | 0.02 | 77 | 1013.8 |
| 20260903165203 | 70 | 267 | 6.1 | 13.9 | 0.00 | 0.02 | 0.02 | 78 | 1013.8 |
| 20260903164702 | 70 | 258 | 6.1 | 13.0 | 0.00 | 0.02 | 0.02 | 78 | 1013.8 |
| 20260903163203 | 70 | 279 | 6.1 | 12.2 | 0.00 | 0.02 | 0.02 | 76 | 1013.8 |
| 20260903162704 | 70 | 267 | 7.0 | 13.0 | 0.00 | 0.02 | 0.02 | 76 | 1013.7 |
| 20260903161703 | 71 | 269 | 7.0 | 13.0 | 0.00 | 0.02 | 0.02 | 75 | 1013.8 |
| 20260903161202 | 71 | 268 | 10.4 | 13.9 | 0.00 | 0.02 | 0.02 | 74 | 1013.8 |
| 20260903160703 | 71 | 281 | 7.8 | 13.9 | 0.00 | 0.02 | 0.02 | 74 | 1013.8 |
| 20260903160203 | 71 | 263 | 9.6 | 17.4 | 0.00 | 0.02 | 0.02 | 75 | 1014.0 |
| 20260903155703 | 71 | 261 | 5.2 | 15.6 | 0.00 | 0.02 | 0.02 | 76 | 1013.8 |
| 20260903155203 | 71 | 254 | 7.8 | 13.0 | 0.00 | 0.02 | 0.02 | 77 | 1013.8 |
| 20260903154703 | 71 | 261 | 7.0 | 13.9 | 0.00 | 0.02 | 0.02 | 77 | 1013.9 |
| 20260903154203 | 71 | 246 | 6.1 | 13.0 | 0.00 | 0.02 | 0.02 | 77 | 1013.8 |
| 20260903153703 | 71 | 259 | 9.6 | 17.4 | 0.00 | 0.02 | 0.02 | 77 | 1013.9 |
| 20260903151703 | 70 | 270 | 7.8 | 14.8 | 0.00 | 0.02 | 0.02 | 78 | 1013.7 |
| 20260903151203 | 70 | 261 | 7.8 | 17.4 | 0.00 | 0.02 | 0.02 | 78 | 1013.7 |
| 20260903150203 | 71 | 260 | 8.7 | 18.2 | 0.00 | 0.02 | 0.02 | 77 | 1013.6 |
| 20260903145703 | 71 | 244 | 10.4 | 17.4 | 0.00 | 0.02 | 0.02 | 77 | 1013.5 |
| 20260903145202 | 72 | 257 | 10.4 | 17.4 | 0.00 | 0.02 | 0.02 | 76 | 1013.5 |
| 20260903144703 | 72 | 255 | 7.8 | 15.6 | 0.00 | 0.02 | 0.02 | 77 | 1013.5 |
| 20260903144203 | 72 | 274 | 10.4 | 13.9 | 0.00 | 0.02 | 0.02 | 77 | 1013.5 |
| 20260903143704 | 72 | 264 | 6.1 | 13.9 | 0.00 | 0.02 | 0.02 | 79 | 1013.6 |
| 20260903143203 | 71 | 259 | 8.7 | 14.8 | 0.00 | 0.02 | 0.02 | 79 | 1013.5 |
| 20260903142203 | 71 | 249 | 8.7 | 18.2 | 0.00 | 0.02 | 0.02 | 79 | 1013.4 |
| 20260903141703 | 71 | 255 | 7.8 | 17.4 | 0.00 | 0.02 | 0.02 | 78 | 1013.5 |
| 20260903140703 | 72 | 283 | 10.4 | 17.4 | 0.00 | 0.02 | 0.02 | 78 | 1013.4 |
| 20260903140203 | 72 | 260 | 11.3 | 18.2 | 0.00 | 0.02 | 0.02 | 78 | 1013.5 |
| 20260903135704 | 72 | 266 | 10.4 | 18.2 | 0.00 | 0.02 | 0.02 | 77 | 1013.4 |
| 20260903135203 | 73 | 246 | 9.6 | 17.4 | 0.00 | 0.02 | 0.02 | 77 | 1013.3 |
| 20260903134704 | 73 | 282 | 8.7 | 13.9 | 0.00 | 0.02 | 0.02 | 77 | 1013.2 |
| 20260903134203 | 72 | 265 | 11.3 | 17.4 | 0.00 | 0.02 | 0.02 | 78 | 1013.4 |
| 20260903133704 | 72 | 256 | 8.7 | 17.4 | 0.00 | 0.02 | 0.02 | 79 | 1013.3 |
| 20260903132703 | 72 | 272 | 11.3 | 18.2 | 0.00 | 0.02 | 0.02 | 79 | 1013.2 |
| 20260903132204 | 72 | 276 | 10.4 | 14.8 | 0.00 | 0.02 | 0.02 | 78 | 1013.2 |
| 20260903131703 | 73 | 264 | 11.3 | 19.1 | 0.00 | 0.02 | 0.02 | 79 | 1013.1 |
| 20260903131204 | 72 | 275 | 10.4 | 17.4 | 0.00 | 0.02 | 0.02 | 80 | 1013.2 |
| 20260903130705 | 72 | 278 | 7.0 | 17.4 | 0.00 | 0.02 | 0.02 | 81 | 1013.2 |
| 20260903130204 | 72 | 257 | 7.0 | 17.4 | 0.00 | 0.02 | 0.02 | 81 | 1013.2 |
| 20260903125704 | 72 | 254 | 8.7 | 13.9 | 0.00 | 0.02 | 0.02 | 82 | 1013.1 |
| 20260903124703 | 72 | 273 | 9.6 | 15.6 | 0.00 | 0.02 | 0.02 | 82 | 1013.0 |
| 20260903124204 | 72 | 249 | 8.7 | 13.9 | 0.00 | 0.02 | 0.02 | 82 | 1013.0 |
| 20260903123703 | 71 | 245 | 7.0 | 13.0 | 0.00 | 0.02 | 0.02 | 83 | 1012.9 |
| 20260903122704 | 72 | 282 | 10.4 | 20.0 | 0.00 | 0.02 | 0.02 | 81 | 1012.9 |
| 20260903122204 | 72 | 283 | 6.1 | 15.6 | 0.00 | 0.02 | 0.02 | 82 | 1012.9 |
| 20260903121704 | 72 | 276 | 6.1 | 14.8 | 0.00 | 0.02 | 0.02 | 82 | 1012.8 |
| 20260903120704 | 72 | 252 | 8.7 | 17.4 | 0.00 | 0.02 | 0.02 | 82 | 1012.7 |
| 20260903120203 | 72 | 267 | 6.1 | 15.6 | 0.00 | 0.02 | 0.02 | 82 | 1012.6 |
| 20260903115704 | 71 | 251 | 6.1 | 13.0 | 0.00 | 0.02 | 0.02 | 83 | 1012.6 |
| 20260903115203 | 71 | 273 | 8.7 | 14.8 | 0.00 | 0.02 | 0.02 | 83 | 1012.7 |
| 20260903114703 | 71 | 254 | 7.8 | 15.6 | 0.00 | 0.02 | 0.02 | 83 | 1012.6 |
| 20260903114204 | 71 | 258 | 7.0 | 12.2 | 0.00 | 0.02 | 0.02 | 83 | 1012.6 |
| 20260903113704 | 71 | 262 | 5.2 | 8.7 | 0.00 | 0.02 | 0.02 | 84 | 1012.6 |
| 20260903113204 | 71 | 263 | 7.8 | 13.0 | 0.00 | 0.02 | 0.02 | 83 | 1012.6 |
| 20260903112704 | 71 | 254 | 6.1 | 13.9 | 0.00 | 0.02 | 0.02 | 82 | 1012.5 |
| 20260903111704 | 71 | 252 | 9.6 | 17.4 | 0.00 | 0.02 | 0.02 | 81 | 1012.4 |
| 20260903111204 | 72 | 248 | 8.7 | 19.1 | 0.01 | 0.02 | 0.02 | 82 | 1012.3 |
| 20260903110704 | 72 | 241 | 10.4 | 20.0 | 0.01 | 0.02 | 0.02 | 82 | 1012.4 |
| 20260903110204 | 72 | 234 | 11.3 | 18.2 | 0.01 | 0.02 | 0.02 | 81 | 1012.3 |
| 20260903105704 | 72 | 244 | 10.4 | 18.2 | 0.01 | 0.02 | 0.02 | 80 | 1012.3 |
| 20260903104704 | 72 | 237 | 10.4 | 17.4 | 0.01 | 0.02 | 0.02 | 82 | 1012.3 |
| 20260903104205 | 72 | 280 | 10.4 | 19.1 | 0.01 | 0.02 | 0.02 | 83 | 1012.3 |
| 20260903103704 | 71 | 248 | 8.7 | 15.6 | 0.01 | 0.02 | 0.02 | 85 | 1012.5 |
| 20260903103205 | 71 | 260 | 7.8 | 13.9 | 0.01 | 0.02 | 0.02 | 85 | 1012.3 |
| 20260903102704 | 71 | 253 | 10.4 | 18.2 | 0.01 | 0.02 | 0.02 | 85 | 1012.4 |
| 20260903102204 | 71 | 240 | 6.1 | 11.3 | 0.01 | 0.02 | 0.02 | 86 | 1012.4 |
| 20260903101704 | 71 | 237 | 8.7 | 13.9 | 0.01 | 0.02 | 0.02 | 86 | 1012.4 |
| 20260903101202 | 71 | 275 | 9.6 | 15.6 | 0.00 | 0.02 | 0.02 | 87 | 1012.5 |
| 20260903100702 | 70 | 251 | 8.7 | 17.4 | 0.00 | 0.02 | 0.02 | 90 | 1012.5 |
| 20260903100202 | 70 | 259 | 5.2 | 13.9 | 0.00 | 0.02 | 0.02 | 92 | 1012.4 |
| 20260903095203 | 68 | 239 | 8.7 | 17.4 | 0.00 | 0.02 | 0.02 | 94 | 1012.5 |
| 20260903094702 | 68 | 237 | 6.1 | 12.2 | 0.00 | 0.02 | 0.02 | 96 | 1012.4 |
| 20260903094202 | 67 | 248 | 7.0 | 15.6 | 0.00 | 0.02 | 0.02 | 96 | 1012.3 |
| 20260903093703 | 67 | 242 | 7.8 | 13.0 | 0.00 | 0.02 | 0.02 | 96 | 1012.3 |
| 20260903092702 | 67 | 240 | 5.2 | 12.2 | 0.00 | 0.02 | 0.02 | 97 | 1012.4 |
| 20260903092202 | 67 | 243 | 4.3 | 7.0 | 0.00 | 0.02 | 0.02 | 97 | 1012.3 |
| 20260903091702 | 67 | 239 | 4.3 | 10.4 | 0.00 | 0.02 | 0.02 | 97 | 1012.3 |
| 20260903091202 | 66 | 227 | 4.3 | 10.4 | 0.00 | 0.02 | 0.02 | 97 | 1012.4 |